Regional Weather Roundup
Issued by NWS

Home | Current Version | Previous Version | Graphics & Text | Print | Product List | Glossary On
Versions: 1 2 3 4 5 6 7 8 9 10 11 12 13 14 15 16 17 18 19 20 21 22 23 24 25 26 27 28 29 30 31 32 33 34 35 36 37 38 39 40 41 42 43 44 45 46 47 48 49 50
000
ASUS43 KOAX 272110
RWRNE

WEATHER ROUNDUP FOR NEBRASKA
NATIONAL WEATHER SERVICE OMAHA NE
400 PM CDT SUN MAY 27 2018

NOTES: SATELLITE DATA IS BEING USED TO AUGMENT CLOUD COVER ABOVE
       12000 FEET.
       "FAIR" INDICATES FEW OR NO CLOUDS BELOW 12,000 FEET WITH NO
       SIGNIFICANT WEATHER AND/OR OBSTRUCTIONS TO VISIBILITY.


NEZ001>004-019>022-054>056-272200-
NEBRASKA PANHANDLE

CITY           SKY/WX    TMP DP  RH WIND       PRES   REMARKS
SCOTTSBLUFF    PTSUNNY   84  59  42 NE12      29.85F
ALLIANCE       CLOUDY    80  61  52 SE7       29.87S
CHADRON        CLOUDY    79  63  57 NE12      29.88R
SIDNEY         CLOUDY    84  50  30 SE14      29.86F
$$

NEZ057>060-069>072-079>082-272200-
SOUTHWEST NEBRASKA

CITY           SKY/WX    TMP DP  RH WIND       PRES   REMARKS
NORTH PLATTE   PTSUNNY   90  64  42 S12G23    29.82F HX  91
IMPERIAL       PTSUNNY   88  59  37 SE14      29.81F
MCCOOK         MOSUNNY   93  55  27 SE23G36   29.80F HX  91
$$

NEZ005>010-023>029-035>040-094-272200-
NORTH CENTRAL NEBRASKA

CITY           SKY/WX    TMP DP  RH WIND       PRES   REMARKS
VALENTINE      PTSUNNY   94  61  33 S21G33    29.80S HX  94
BROKEN BOW     PTSUNNY   93  56  28 S17       29.85S HX  91
ORD            PTSUNNY   93  56  28 S15G24    29.82S HX  91
$$

NEZ041-046>049-061>064-073>077-083>087-272200-
SOUTH CENTRAL NEBRASKA

CITY           SKY/WX    TMP DP  RH WIND       PRES   REMARKS
GRAND ISLAND   MOSUNNY   97  53  22 S21G30    29.84F HX  94
HASTINGS       SUNNY     95  53  24 S14G30    29.85F HX  92
$$

NEZ011>018-030>034-042>045-272200-
NORTHEAST NEBRASKA

CITY           SKY/WX    TMP DP  RH WIND       PRES   REMARKS
TEKAMAH        SUNNY    101  57  23 S17G29    29.80F HX 100
$$

NEZ050>053-065>068-078-088>093-272200-
SOUTHEAST NEBRASKA

CITY           SKY/WX    TMP DP  RH WIND       PRES   REMARKS
OMAHA EPPLEY   PTSUNNY  100  58  24 S12G20    29.81F HX  99
FALLS CITY     MOSUNNY   97  58  27 S10G18    29.83F HX  96
$$

NEZ044-045-051>053-067-272200-
OMAHA AREA

CITY           SKY/WX    TMP DP  RH WIND       PRES   REMARKS
OMAHA EPPLEY   PTSUNNY  100  58  24 S12G20    29.81F HX  99
$$



USA.gov is the U.S. government's official web portal to all federal, state and local government web resources and services.